Location: Angwan Shehu
(11.2514°N, 7.4613°E)
Time: 02:03:17
(UTC+00:00)

Tiros 1 - Pass Details

Date: 24 April 2021
Orbit: 630 x 664 km, 48.4° (Epoch: 06 May)

Event Time Altitude Azimuth Distance (km) Brightness Sun altitude
Rises 06:18:10 0° 266° (W) 2,959 9.9 14.5°
Reaches altitude 10° 06:22:53 10° 308° (NW) 2,037 9.4 15.6°
Maximum altitude 06:23:33 10° 317° (NW) 2,017 9.4 15.8°
Drops below altitude 10° 06:24:14 10° 325° (NW) 2,033 9.5 15.9°
Sets 06:28:56 0° 8° (N) 2,930 10.8 17.1°
